Location: Peebles
(55.6412°N, 3.1714°W)
Time: 02:01:39
(UTC+01:00)

FENGYUN 1C DEB - Pass Details

Date: 10 July 2022
Orbit: 580 x 1160 km, 99.3° (Epoch: 11 August)

Event Time Altitude Azimuth Distance (km) Brightness Sun altitude
Exits shadow 01:30:02 15° 195° (SSW) 2,350 ? -12.1°
Maximum altitude 01:34:54 46° 263° (W) 1,386 ? -12.0°
Drops below altitude 10° 01:41:29 10° 336° (NNW) 3,011 ? -11.9°
Sets 01:44:20 0° 342° (NNW) 4,014 ? -11.9°
